TimeMDT,TemperatureF,Dew PointF,Humidity,Sea Level PressureIn,VisibilityMPH,Wind Direction,Wind SpeedMPH,Gust SpeedMPH,PrecipitationIn,Events,Conditions,WindDirDegrees,DateUTC
12:53 AM,25.0,14.0,63,30.05,10.0,North,10.4,-,N/A,,Clear,350,2014-03-14 06:53:00
1:53 AM,21.0,14.0,74,30.06,10.0,ESE,4.6,-,N/A,,Clear,120,2014-03-14 07:53:00
2:53 AM,19.0,12.9,77,30.06,10.0,East,5.8,-,N/A,,Clear,100,2014-03-14 08:53:00
3:53 AM,16.0,10.9,81,30.08,10.0,NNE,4.6,-,N/A,,Clear,20,2014-03-14 09:53:00
4:53 AM,18.0,12.0,78,30.05,10.0,NNW,5.8,-,N/A,,Clear,330,2014-03-14 10:53:00
5:53 AM,17.1,10.9,77,30.07,10.0,ENE,3.5,-,N/A,,Clear,70,2014-03-14 11:53:00
6:53 AM,15.1,10.0,80,30.10,10.0,ENE,8.1,-,N/A,,Clear,60,2014-03-14 12:53:00
7:53 AM,15.1,9.0,77,30.14,10.0,East,4.6,-,N/A,,Clear,80,2014-03-14 13:53:00
8:53 AM,19.0,10.0,68,30.15,10.0,ENE,10.4,-,N/A,,Clear,60,2014-03-14 14:53:00
9:53 AM,25.0,12.9,60,30.13,10.0,East,8.1,-,N/A,,Clear,80,2014-03-14 15:53:00
10:53 AM,30.0,14.0,51,30.12,10.0,East,6.9,-,N/A,,Clear,100,2014-03-14 16:53:00
11:53 AM,33.1,15.1,48,30.09,10.0,Variable,3.5,-,N/A,,Clear,0,2014-03-14 17:53:00
12:53 PM,37.9,12.9,36,30.06,10.0,Calm,Calm,-,N/A,,Clear,0,2014-03-14 18:53:00
1:53 PM,41.0,16.0,36,30.05,10.0,ENE,8.1,-,N/A,,Clear,70,2014-03-14 19:53:00
2:53 PM,41.0,18.0,40,30.04,10.0,East,6.9,-,N/A,,Clear,80,2014-03-14 20:53:00
3:53 PM,45.0,18.0,34,30.01,10.0,NE,8.1,-,N/A,,Clear,40,2014-03-14 21:53:00
4:53 PM,46.0,17.1,31,30.00,10.0,North,10.4,-,N/A,,Partly Cloudy,350,2014-03-14 22:53:00
5:53 PM,44.1,19.0,37,30.00,10.0,NW,6.9,-,N/A,,Mostly Cloudy,320,2014-03-14 23:53:00
6:53 PM,39.9,23.0,51,30.03,10.0,West,5.8,-,N/A,,Overcast,280,2014-03-15 00:53:00
7:53 PM,37.0,26.1,65,30.05,10.0,West,12.7,-,N/A,,Overcast,280,2014-03-15 01:53:00
8:53 PM,36.0,27.0,70,30.04,10.0,NW,11.5,-,N/A,,Overcast,320,2014-03-15 02:53:00
9:53 PM,33.1,28.0,82,30.03,10.0,NW,8.1,-,N/A,,Overcast,320,2014-03-15 03:53:00
10:53 PM,30.0,26.1,85,30.02,10.0,North,6.9,-,N/A,,Partly Cloudy,350,2014-03-15 04:53:00
11:53 PM,28.9,25.0,85,30.01,10.0,North,6.9,-,N/A,,Scattered Clouds,360,2014-03-15 05:53:00